$Date,$Time,DM0201B,DM0203B,DM0205B,DM0207B,DM0209B
04/03/99,00:00:01,491,166,-16,51,949
04/03/99,00:05:01,453,166,-16,53,949
04/03/99,00:10:01,473,165,-16,53,949
04/03/99,00:15:01,506,165,-16,53,949
04/03/99,00:20:01,504,165,-16,53,949
04/03/99,00:25:01,492,155,-16,53,949
04/03/99,00:30:01,496,166,-16,53,949
04/03/99,00:35:01,461,155,-16,53,949
04/03/99,00:40:01,499,164,-16,53,949
04/03/99,00:45:01,480,164,-16,53,949
04/03/99,00:50:01,468,164,-16,51,949
04/03/99,00:55:01,426,163,-16,51,949
04/03/99,01:00:01,473,167,-16,51,949
04/03/99,01:05:01,536,167,-16,49,947
04/03/99,01:10:01,489,162,-16,47,947
04/03/99,01:15:01,526,162,-16,47,947
04/03/99,01:20:01,476,160,-16,47,947
04/03/99,01:25:01,466,160,-16,47,947
04/03/99,01:30:01,408,160,-16,47,947
04/03/99,01:35:01,465,160,-16,49,949
04/03/99,01:40:01,465,160,-16,49,949
04/03/99,01:45:01,431,160,-16,47,949
04/03/99,01:50:01,472,171,-16,45,949
04/03/99,01:55:01,412,161,-16,45,949
04/03/99,02:00:01,481,161,-16,43,949
04/03/99,02:05:01,455,161,-16,41,949
04/03/99,02:10:01,542,165,-16,41,949
04/03/99,02:15:01,474,165,-16,43,949
04/03/99,02:20:01,467,165,-16,43,947
04/03/99,02:25:01,492,165,-16,41,947
04/03/99,02:30:01,480,165,-16,41,947
04/03/99,02:35:01,402,165,-16,39,947
04/03/99,02:40:01,325,175,-16,39,947
04/03/99,02:45:01,352,171,-16,37,949
04/03/99,02:50:01,390,171,-16,35,949
04/03/99,02:55:01,358,172,-16,35,949
04/03/99,03:00:01,377,164,-16,35,949
04/03/99,03:05:01,403,164,-16,35,949
04/03/99,03:10:01,364,164,-16,35,949
04/03/99,03:15:01,425,174,-16,35,949
04/03/99,03:20:01,428,174,-16,37,949
04/03/99,03:25:01,421,174,-16,39,949
04/03/99,03:30:01,339,175,-16,37,949
04/03/99,03:35:01,356,164,-16,35,949
04/03/99,03:40:01,154,177,-16,33,949
04/03/99,03:45:01,78,124,-16,31,949
04/03/99,03:50:01,295,184,-16,29,949
04/03/99,03:55:01,320,179,-16,27,949
04/03/99,04:00:01,249,159,-16,27,949
04/03/99,04:05:01,285,175,-16,25,949
04/03/99,04:10:01,144,179,-16,25,949
04/03/99,04:15:01,315,174,-16,23,949
04/03/99,04:20:01,367,163,-16,21,949
04/03/99,04:25:01,257,163,-16,21,949
04/03/99,04:30:01,233,157,-16,19,949
04/03/99,04:35:01,254,167,-16,17,949
04/03/99,04:40:01,295,159,-16,15,949
04/03/99,04:45:01,201,162,-16,15,949
04/03/99,04:50:01,40,56,-16,13,949
04/03/99,04:55:01,14,71,-16,11,949
04/03/99,05:00:01,61,176,-16,11,949
04/03/99,05:05:01,307,176,-16,9,949
04/03/99,05:10:01,395,162,-16,9,949
04/03/99,05:15:01,366,148,-16,7,949
04/03/99,05:20:01,257,130,-16,5,949
04/03/99,05:25:01,251,149,-16,5,949
04/03/99,05:30:01,302,163,-16,3,949
04/03/99,05:35:01,393,163,-16,3,949
04/03/99,05:40:01,333,164,-16,3,949
04/03/99,05:45:01,350,164,-16,3,949
04/03/99,05:50:01,390,164,-16,3,949
04/03/99,05:55:01,331,164,-16,3,949
04/03/99,06:00:01,374,164,-16,1,949
04/03/99,06:05:01,327,164,-16,1,949
04/03/99,06:10:01,382,164,-16,1,949
04/03/99,06:15:01,356,164,-16,1,949
04/03/99,06:20:01,363,164,-16,1,949
04/03/99,06:25:01,385,164,-16,1,949
04/03/99,06:30:01,379,164,-16,1,949
04/03/99,06:35:01,381,164,-16,1,949
04/03/99,06:40:01,410,174,-16,1,949
04/03/99,06:45:01,365,163,-16,1,949
04/03/99,06:50:01,380,165,-16,1,949
04/03/99,06:55:01,342,155,-16,1,949
04/03/99,07:00:01,328,165,-16,1,949
04/03/99,07:05:01,351,162,-16,1,949
04/03/99,07:10:01,415,162,-16,1,949
04/03/99,07:15:01,388,162,-16,1,949
04/03/99,07:20:01,368,162,-16,1,949
04/03/99,07:25:01,343,173,-16,1,949
04/03/99,07:30:01,335,169,-16,1,949
04/03/99,07:35:01,329,158,-16,1,949
04/03/99,07:40:01,339,158,-16,1,949
04/03/99,07:45:01,353,158,-16,1,949
04/03/99,07:50:01,323,158,-16,1,949
04/03/99,07:55:01,403,171,-16,1,949
04/03/99,08:00:01,368,172,-16,1,949
04/03/99,08:05:01,376,174,-16,1,949
04/03/99,08:10:01,409,177,-16,1,949
04/03/99,08:15:01,393,174,-16,1,949
04/03/99,08:20:01,350,161,-16,1,949
04/03/99,08:25:01,356,166,-16,1,949
04/03/99,08:30:01,403,170,-16,1,949
04/03/99,08:35:01,407,178,-18,1,949
04/03/99,08:40:01,379,178,-18,1,949
04/03/99,08:45:01,362,178,-18,1,949
04/03/99,08:50:01,323,178,-18,1,949
04/03/99,08:55:01,274,178,-18,1,949
04/03/99,09:00:01,286,177,-18,1,949
04/03/99,09:05:01,311,175,-18,1,949
04/03/99,09:10:01,311,172,-18,1,949
04/03/99,09:15:01,210,160,-18,1,949
04/03/99,09:20:01,261,162,-18,1,949
04/03/99,09:25:01,284,172,-18,1,949
04/03/99,09:30:01,264,172,-18,1,949
04/03/99,09:35:01,193,162,-18,1,949
04/03/99,09:40:01,203,162,-18,1,949
04/03/99,09:45:01,185,162,-18,1,949
04/03/99,09:50:01,225,176,-18,1,949
04/03/99,09:55:01,249,187,-18,1,949
04/03/99,10:00:01,227,187,-18,1,949
04/03/99,10:05:01,207,171,-18,1,949
04/03/99,10:10:01,155,175,-18,1,949
04/03/99,10:15:01,183,175,-18,1,949
04/03/99,10:20:01,193,180,-18,1,949
04/03/99,10:25:01,148,180,-18,1,949
04/03/99,10:30:01,149,176,-16,1,949
04/03/99,10:35:01,204,173,-16,1,949
04/03/99,10:40:01,257,184,-16,1,949
04/03/99,10:45:01,265,182,-16,1,949
04/03/99,10:50:01,153,146,-16,1,949
04/03/99,10:55:01,150,150,-16,1,949
04/03/99,11:00:01,140,160,-16,1,949
04/03/99,11:05:01,132,168,-16,1,949
04/03/99,11:10:01,223,171,-16,1,949
04/03/99,11:15:01,322,165,-16,1,949
04/03/99,11:20:01,309,165,-16,1,949
04/03/99,11:25:01,318,164,-16,1,949
04/03/99,11:30:01,260,140,-16,1,949
04/03/99,11:35:01,270,151,-16,1,949
04/03/99,11:40:01,275,146,-16,1,949
04/03/99,11:45:01,312,156,-16,1,949
04/03/99,11:50:01,302,157,-16,1,949
04/03/99,11:55:01,303,157,-16,1,949
04/03/99,12:00:01,363,169,-16,1,947
04/03/99,12:05:01,431,171,-16,1,947
04/03/99,12:10:01,374,173,-16,1,947
04/03/99,12:15:01,445,160,-16,1,947
04/03/99,12:20:01,411,173,-16,1,947
04/03/99,12:25:01,436,173,-16,1,947
04/03/99,12:30:01,475,160,-16,1,947
04/03/99,12:35:01,461,171,-16,1,947
04/03/99,12:40:01,468,171,-16,1,947
04/03/99,12:45:01,454,171,-16,1,947
04/03/99,12:50:01,400,171,-16,1,947
04/03/99,12:55:01,430,171,-16,1,947
04/03/99,13:00:01,446,171,-16,1,947
04/03/99,13:05:01,430,171,-16,1,947
04/03/99,13:10:01,365,171,-16,1,947
04/03/99,13:15:01,406,171,-16,1,947
04/03/99,13:20:01,356,171,-16,1,947
04/03/99,13:25:01,425,171,-16,1,947
04/03/99,13:30:01,420,171,-16,1,947
04/03/99,13:35:01,424,171,-16,1,947
04/03/99,13:40:01,388,171,-16,1,947
04/03/99,13:45:01,399,171,-16,1,947
04/03/99,13:50:01,459,171,-16,1,947
04/03/99,13:55:01,423,172,-16,1,947
04/03/99,14:00:01,445,162,-16,1,947
04/03/99,14:05:01,563,173,-16,1,947
04/03/99,14:10:01,514,163,-16,1,947
04/03/99,14:15:01,496,165,-16,1,947
04/03/99,14:20:01,526,166,-16,1,947
04/03/99,14:25:01,543,166,-16,1,947
04/03/99,14:30:01,541,166,-16,1,947
04/03/99,14:35:01,512,166,-16,1,947
04/03/99,14:40:01,537,166,-16,1,947
04/03/99,14:45:01,523,167,-16,1,947
04/03/99,14:50:01,454,167,-16,1,947
04/03/99,14:55:01,545,167,-16,1,947
04/03/99,15:00:01,536,167,-16,1,947
04/03/99,15:05:01,499,167,-16,1,947
04/03/99,15:10:01,540,167,-16,1,947
04/03/99,15:15:01,571,167,-16,1,947
04/03/99,15:20:01,542,167,-16,1,947
04/03/99,15:25:01,592,177,-16,1,947
04/03/99,15:30:01,479,174,-18,1,947
04/03/99,15:35:01,476,174,-18,1,947
04/03/99,15:40:01,485,174,-18,1,947
04/03/99,15:45:01,495,174,-18,1,947
04/03/99,15:50:01,523,174,-18,1,947
04/03/99,15:55:01,518,174,-18,1,947
04/03/99,16:00:01,531,174,-18,1,947
04/03/99,16:05:01,519,174,-18,1,947
04/03/99,16:10:01,539,174,-18,1,947
04/03/99,16:15:01,495,175,-18,1,947
04/03/99,16:20:01,474,165,-18,1,947
04/03/99,16:25:01,554,165,-18,1,947
04/03/99,16:30:01,506,172,-18,1,947
04/03/99,16:35:01,486,172,-18,1,947
04/03/99,16:40:01,534,172,-18,1,947
04/03/99,16:45:01,472,171,-18,1,947
04/03/99,16:50:01,522,171,-18,1,947
04/03/99,16:55:01,524,161,-18,1,947
04/03/99,17:00:01,494,167,-18,1,947
04/03/99,17:05:01,516,167,-18,1,947
04/03/99,17:10:01,484,167,-18,1,947
04/03/99,17:15:01,513,167,-18,1,947
04/03/99,17:20:01,468,167,-18,1,947
04/03/99,17:25:01,399,163,-18,1,947
04/03/99,17:30:01,467,165,-18,1,949
04/03/99,17:35:01,371,165,-18,1,949
04/03/99,17:40:01,405,165,-18,1,949
04/03/99,17:45:01,447,165,-18,1,949
04/03/99,17:50:01,465,165,-18,1,949
04/03/99,17:55:01,415,165,-18,1,949
04/03/99,18:00:01,403,165,-18,1,949
04/03/99,18:05:01,474,165,-18,1,949
04/03/99,18:10:01,396,165,-18,1,949
04/03/99,18:15:01,429,165,-18,1,949
04/03/99,18:20:01,462,166,-18,1,949
04/03/99,18:25:01,415,166,-18,1,949
04/03/99,18:30:01,460,165,-18,1,949
04/03/99,18:35:01,523,167,-18,1,949
04/03/99,18:40:01,527,167,-18,1,949
04/03/99,18:45:01,532,167,-18,1,949
04/03/99,18:50:01,504,167,-18,1,949
04/03/99,18:55:01,530,167,-18,1,949
04/03/99,19:00:01,501,167,-18,1,949
04/03/99,19:05:01,531,167,-18,1,949
04/03/99,19:10:01,565,167,-18,1,949
04/03/99,19:15:01,568,167,-18,1,949
04/03/99,19:20:01,558,167,-18,1,949
04/03/99,19:25:01,523,167,-18,1,949
04/03/99,19:30:01,649,167,-18,1,949
04/03/99,19:35:01,645,167,-18,1,949
04/03/99,19:40:01,630,167,-18,1,949
04/03/99,19:45:01,557,167,-18,1,949
04/03/99,19:50:01,582,167,-18,1,949
04/03/99,19:55:01,654,167,-18,1,949
04/03/99,20:00:01,587,167,-18,1,949
04/03/99,20:05:01,526,168,-18,1,949
04/03/99,20:10:01,608,168,-18,1,949
04/03/99,20:15:01,628,167,-18,3,949
04/03/99,20:20:01,680,166,-18,5,949
04/03/99,20:25:01,615,166,-18,7,949
04/03/99,20:30:01,610,166,-18,9,949
04/03/99,20:35:01,668,177,-18,11,949
04/03/99,20:40:01,590,165,-18,11,949
04/03/99,20:45:01,591,176,-18,13,949
04/03/99,20:50:01,580,172,-18,17,949
04/03/99,20:55:01,611,172,-18,23,949
04/03/99,21:00:01,670,172,-18,29,949
04/03/99,21:05:01,594,172,-18,25,949
04/03/99,21:10:01,593,176,-18,21,949
04/03/99,21:15:01,595,160,-18,21,949
04/03/99,21:20:01,629,172,-18,21,949
04/03/99,21:25:01,577,168,-18,21,949
04/03/99,21:30:01,591,168,-18,23,949
04/03/99,21:35:01,594,168,-18,25,949
04/03/99,21:40:01,567,168,-18,27,949
04/03/99,21:45:01,529,168,-18,31,949
04/03/99,21:50:01,576,168,-18,33,949
04/03/99,21:55:01,549,168,-18,37,949
04/03/99,22:00:01,567,168,-18,39,949
04/03/99,22:05:01,632,168,-18,41,949
04/03/99,22:10:01,627,168,-18,43,949
04/03/99,22:15:01,596,168,-18,45,949
04/03/99,22:20:01,592,168,-18,47,949
04/03/99,22:25:01,605,168,-18,53,949
04/03/99,22:30:01,634,168,-18,61,949
04/03/99,22:35:01,618,168,-18,65,949
04/03/99,22:40:01,661,168,-18,65,949
04/03/99,22:45:01,639,168,-18,69,949
04/03/99,22:50:01,536,168,-18,77,949
04/03/99,22:55:01,588,168,-18,79,949
04/03/99,23:00:01,570,168,-18,81,949
04/03/99,23:05:01,589,168,-18,83,949
04/03/99,23:10:01,594,169,-18,87,949
04/03/99,23:15:01,672,169,-18,107,949
04/03/99,23:20:01,723,170,-18,114,949
04/03/99,23:25:01,617,160,-18,116,949
04/03/99,23:30:01,614,170,-18,108,949
04/03/99,23:35:01,715,171,-18,89,949
04/03/99,23:40:01,608,162,-18,85,949
04/03/99,23:45:01,667,164,-18,83,949
04/03/99,23:50:01,649,165,-18,83,949
04/03/99,23:55:01,571,165,-18,83,951
04/04/99,00:00:01,698,165,-20,81,949
